Winslow, AZ

12:48 AM MST on May 23, 2017 (GMT -0700)
Winslow-Lindbergh Regional

Weather History for KINW - February, 2013

Change the Weather History Date:

Tuesday, February 26, 2013

  Actual Average Record
Temperature  
Mean Temperature 34 °F 43 °F  
Max Temperature 48 °F 59 °F 76 °F (1989)
Min Temperature 20 °F 27 °F 5 °F (1977)
Degree Days  
Heating Degree Days 31 22  
Month to date heating degree days 608 647  
Since 1 July heating degree days 3322 3450  
Cooling Degree Days 0 0  
Month to date cooling degree days 0 0  
Year to date cooling degree days 0 0  
Moisture  
Dew Point 6 °F    
Average Humidity 45    
Maximum Humidity 77    
Minimum Humidity 13    
Precipitation  
Precipitation 0.00 in 0.02 in 0.51 in (1933)
Month to date precipitation 0.41 0.43  
Year to date precipitation 1.14 0.95  
Sea Level Pressure  
Sea Level Pressure 30.06 in    
Wind  
Wind Speed 9 mph (NW)    
Max Wind Speed 24 mph    
Max Gust Speed 33 mph    
Visibility 10 miles    
Events      
T = Trace of Precipitation, MM = Missing Value Source: NWS Daily Summary

Daily Weather History Graph

Daily Weather History Graph

Search for Another Location

Airport or City:

Trip Planner

Search our weather history database for the weather conditions in past years. The results will help you decide how hot, cold, wet, or windy it might be!

Date:

Astronomy

Feb. 26, 2013 Rise Set
Actual Time 6:55 AM MST 6:16 PM MST
Civil Twilight 6:30 AM MST 6:41 PM MST
Nautical Twilight 6:00 AM MST 7:11 PM MST
Astronomical Twilight 5:31 AM MST 7:40 PM MST
Moon 7:31 PM MST (2/26) 7:04 AM MST (2/26)
Length of Visible Light 12h 11m
Length of Day
11h 20m
Full, 99% of the Moon is Illuminated
Feb 26
Full
Mar 4
Last Quarter
Mar 11
New
Mar 19
First Quarter
Mar 27
Full

Hourly Weather History & Observations

Time (MST) Temp. Windchill Dew Point Humidity Pressure Visibility Wind Dir Wind Speed Gust Speed Precip Events Conditions
12:56 AM 24.1 °F - 16.0 °F 71% 29.99 in 10.0 mi Calm Calm - N/A   Clear
1:56 AM 23.0 °F 18.4 °F 15.1 °F 72% 29.99 in 10.0 mi SSE 3.5 mph - N/A   Clear
2:56 AM 21.9 °F 17.2 °F 15.1 °F 75% 29.99 in 10.0 mi Variable 3.5 mph - N/A   Clear
3:56 AM 27.0 °F 23.0 °F 12.9 °F 56% 29.97 in 10.0 mi WNW 3.5 mph - N/A   Clear
4:56 AM 27.0 °F 19.5 °F 12.9 °F 56% 29.96 in 10.0 mi WSW 6.9 mph - N/A   Clear
5:56 AM 25.0 °F - 12.9 °F 60% 29.98 in 10.0 mi Calm Calm - N/A   Clear
6:56 AM 24.1 °F 18.2 °F 12.0 °F 60% 30.01 in 10.0 mi East 4.6 mph - N/A   Clear
7:56 AM 24.1 °F - 16.0 °F 71% 30.05 in 10.0 mi Calm Calm - N/A   Clear
8:56 AM 35.1 °F 26.9 °F 15.1 °F 44% 30.04 in 10.0 mi NW 11.5 mph - N/A   Clear
9:56 AM 39.9 °F 32.5 °F 12.0 °F 32% 30.05 in 10.0 mi NNW 12.7 mph - N/A   Clear
10:56 AM 43.0 °F 37.2 °F 10.9 °F 27% 30.06 in 10.0 mi NNW 10.4 mph 17.3 mph N/A   Clear
11:56 AM 45.0 °F 37.6 °F 6.1 °F 20% 30.05 in 10.0 mi NW 17.3 mph 21.9 mph N/A   Clear
12:56 PM 46.9 °F - 3.9 °F 17% 30.05 in 10.0 mi WNW 19.6 mph 28.8 mph N/A   Clear
1:56 PM 48.0 °F - 3.0 °F 16% 30.04 in 10.0 mi NW 25.3 mph 33.4 mph N/A   Clear
2:56 PM 46.9 °F - 1.0 °F 15% 30.05 in 10.0 mi NW 17.3 mph 27.6 mph N/A   Clear
3:56 PM 46.0 °F 39.0 °F -2.0 °F 14% 30.04 in 10.0 mi NNW 17.3 mph 28.8 mph N/A   Clear
4:56 PM 45.0 °F 37.6 °F -4.0 °F 13% 30.06 in 10.0 mi NW 17.3 mph 23.0 mph N/A   Clear
5:56 PM 42.1 °F 34.5 °F -4.0 °F 14% 30.09 in 10.0 mi NNW 15.0 mph 21.9 mph N/A   Clear
6:56 PM 37.0 °F 32.4 °F -2.0 °F 19% 30.14 in 10.0 mi NNW 5.8 mph - N/A   Clear
7:56 PM 34.0 °F 28.8 °F -2.9 °F 21% 30.18 in 10.0 mi NNW 5.8 mph - N/A   Clear
8:56 PM 30.2 °F 25.4 °F -2.2 °F 25% 30.14 in 10.0 mi NNW 4.6 mph - N/A   Clear
9:56 PM 21.0 °F - -0.9 °F 38% 30.20 in 10.0 mi Calm Calm - N/A   Clear
10:56 PM 23.0 °F 13.9 °F -0.9 °F 35% 30.19 in 10.0 mi WNW 8.1 mph - N/A   Clear
11:56 PM 19.9 °F 11.1 °F -0.0 °F 42% 30.21 in 10.0 mi West 6.9 mph - N/A   Clear